OpenBCM V1.13 (Linux)

Packet Radio Mailbox

DB0FHN

[JN59NK Nuernberg]

 Login: GUEST





  
UA9FBV > KEPS     26.11.04 10:48l 151 Lines 3945 Bytes #999 (0) @ AMSAT
BID : ORB04330.O
Read: GUEST
Subj: Orbital Elements  04330.OSCAR
Path: DB0FHN<DB0RGB<OK0PPL<DB0RES<ER3KAZ<UA9FBV
Sent: 041126/0840Z @:UA9FBV.PRM.RUS.AS #:11656 [Perm] GATEWAY $:ORB04330.O
From: UA9FBV@UA9FBV.PRM.RUS.AS
To  : KEPS@AMSAT


HR AMSAT ORBITAL ELEMENTS FOR OSCAR SATELLITES
FROM WA5QGD FORT WORTH,TX November 25, 2004
SEND SUBSCRIBE/UNSUBSCRIBE TO majordomo@amsat.org ONLY
BID: ORB04330.O
TO ALL RADIO AMATEURS BT

Satellite: AO-07
Catalog number: 07530
Epoch time:      04329.76769709
Element set:     351
Inclination:      101.6595 deg
RA of node:        13.8624 deg
Eccentricity:    0.0011984
Arg of perigee:   270.3149 deg
Mean anomaly:      89.6550 deg
Mean motion:   12.53569583 rev/day
Decay rate:       -2.9e-07 rev/day^2
Epoch rev:           37403
Checksum:              320

Satellite: AO-10
Catalog number: 14129
Epoch time:      04330.33895446
Element set:     124
Inclination:       26.8253 deg
RA of node:        59.8461 deg
Eccentricity:    0.6031978
Arg of perigee:   143.5706 deg
Mean anomaly:     278.7166 deg
Mean motion:    2.05869960 rev/day
Decay rate:      -1.24e-06 rev/day^2
Epoch rev:           16133
Checksum:              310

Satellite: UO-11
Catalog number: 14781
Epoch time:      04330.32373556
Element set:     644
Inclination:       98.1900 deg
RA of node:       317.9555 deg
Eccentricity:    0.0008067
Arg of perigee:   297.2026 deg
Mean anomaly:      62.8367 deg
Mean motion:   14.79080283 rev/day
Decay rate:       3.25e-06 rev/day^2
Epoch rev:           11166
Checksum:              301

Satellite: RS-10/11
Catalog number: 18129
Epoch time:      04330.15820584
Element set:     546
Inclination:       82.9268 deg
RA of node:        29.0571 deg
Eccentricity:    0.0010245
Arg of perigee:   230.3386 deg
Mean anomaly:     129.6875 deg
Mean motion:   13.72748801 rev/day
Decay rate:        2.7e-07 rev/day^2
Epoch rev:           87308
Checksum:              303

Satellite: FO-20
Catalog number: 20480
Epoch time:      04330.52207715
Element set:     750
Inclination:       99.0212 deg
RA of node:       177.4620 deg
Eccentricity:    0.0540523
Arg of perigee:   341.3592 deg
Mean anomaly:      16.8397 deg
Mean motion:   12.83343404 rev/day
Decay rate:       -3.3e-07 rev/day^2
Epoch rev:           69337
Checksum:              275

Satellite: RS-12/13
Catalog number: 21089
Epoch time:      04330.33635895
Element set:     771
Inclination:       82.9223 deg
RA of node:        62.1725 deg
Eccentricity:    0.0027809
Arg of perigee:   289.1748 deg
Mean anomaly:      70.6398 deg
Mean motion:   13.74444129 rev/day
Decay rate:        5.5e-07 rev/day^2
Epoch rev:           69249
Checksum:              331

Satellite: RS-15
Catalog number: 23439
Epoch time:      04330.50234015
Element set:     822
Inclination:       64.8149 deg
RA of node:        76.9540 deg
Eccentricity:    0.0157930
Arg of perigee:   352.3460 deg
Mean anomaly:       7.5057 deg
Mean motion:   11.27550470 rev/day
Decay rate:       -3.9e-07 rev/day^2
Epoch rev:           40842
Checksum:              278

Satellite: FO-29
Catalog number: 24278
Epoch time:      04330.76098919
Element set:     831
Inclination:       98.5777 deg
RA of node:        41.5051 deg
Eccentricity:    0.0350733
Arg of perigee:   343.4479 deg
Mean anomaly:      15.5440 deg
Mean motion:   13.52905019 rev/day
Decay rate:       -6.9e-07 rev/day^2
Epoch rev:           40868
Checksum:              326

Satellite: SO-33
Catalog number: 25509
Epoch time:      04329.69655965
Element set:     244
Inclination:       31.4276 deg
RA of node:       108.3869 deg
Eccentricity:    0.0356415
Arg of perigee:   178.9133 deg
Mean anomaly:     181.2303 deg
Mean motion:   14.27921087 rev/day
Decay rate:       7.92e-06 rev/day^2
Epoch rev:           31757
Checksum:              330

Satellite: AO-40
Catalog number: 26609
Epoch time:      04330.29044552
Element set:     460
Inclination:        9.2855 deg
RA of node:       333.0815 deg
Eccentricity:    0.7960977
Arg of perigee:   341.7979 deg
Mean anomaly:       1.1121 deg
Mean motion:    1.25586037 rev/day
Decay rate:      -1.09e-06 rev/day^2
Epoch rev:            1869
Checksum:              303



Read previous mail | Read next mail


 12.09.2026 02:44:34lGo back Go up